Volver al catálogo

STARLINK-33594

ActivoComunicacionesVLEO
NORAD 62770·PAYLOAD·🇺🇸 United States

Lanzado Jan 21, 2025 desde Vandenberg Space Force Base

Loading…

Próximos Pases (próximas 24 horas)

TLE

ActualizadoSource: CelesTrak SupGP

Época: Sep 15, 2026, 03:22 UTC

1 62770C 25015N   26258.14076389  .00008707  00000+0  28001-3 0  2589
2 62770  53.1566 160.7710 0001261  87.8202 178.3165 15.31696815    16

Sigue STARLINK-33594 en tiempo real con AllMySat

Download on the App Store